Location: Complexul Astronomic Baia Mare
(47.6577°N, 23.5639°E)
Time: 20:00:19
(UTC+03:00)

ISS - Pass Details

Date: 14 March 2017
Orbit: 399 x 409 km, 51.6° (Epoch: 27 March)

Event Time Altitude Azimuth Distance (km) Brightness Sun altitude
Exits shadow 03:44:31 16° 61° (ENE) 1,163 -0.7 -29.2°
Drops below altitude 10° 03:45:19 10° 64° (ENE) 1,479 -0.1 -29.1°
Sets 03:47:26 0° 68° (ENE) 2,343 1.2 -28.8°
